sat.trackr.live / text

‹ back to catalog

KINEIS-4B

NORAD 63304 · 2025-056E

PAYLOAD ACTIVE UNKNOWN

§ Identity

Operator
Country
FR
Launch date
2025-03-18
Launch site
RLLB
Launch vehicle
Mass (kg)
RCS (m²)

External: N2YO · Heavens-Above · Gunter

§ Orbital elements

Epoch: 2026-09-22T22:38:34.435968Z

Period
97.81 min
Inclination
97.9229°
Eccentricity
0.0005162
Mean motion
14.72301050 rev/d
Perigee alt
650.1 km
Apogee alt
657.4 km
Semi-major
7,031.9 km
B*
1.5507e-4
RAAN
27.4866°
Arg perigee
358.7412°
Mean anomaly
1.3782°
Rev number
8,150

§ Raw data

KINEIS-4B1 63304U 25056E   26265.94345412  .00000932  00000+0  15507-3 0  99912 63304  97.9229  27.4866 0005162 358.7412   1.3782 14.72301050 81501

JSON: /api/v1/satellites/63304 · /tle

For live sub-satellite position, see the globe view (requires WebGL).

§ Visibility from observer

Set your observer location to see the next 7 days of passes ≥ 10°. The values pass through the URL so the page stays shareable.

No JS? Fill the form by hand. The geolocation button needs JavaScript.

§ Radio — SatNOGS DB

ModeDescriptionDownlinkUplink
BPSK PMT-A3 Mode U 400.651 MHz
BPSK S-band telemetry 2.261 GHz

2 transmitters · refreshed weekly from db.satnogs.org